This demonstration page uses our WeatherBlox Daily Observations layout. Learn more.

Left ArrowRight Arrow

Hourly Observations for May 1, 2022

Temp ( °F °C ) Dew Point ( °F °C ) Humidity (%) Winds ( mph kmh ) Pressure ( in mb ) Visibility ( mi km ) Precip ( " mm )
12:15 am 00:15 Cloudy with Nearby Thunderstorms 62 16.5 60 15.7 95 95 S 15 24 29.75 1007 4 6 0.08 2.03
12:35 am 00:35 Cloudy with Thunderstorms 62 16.6 60 15.8 95 95 S 12 19 29.76 1008 10 16 0.08 2.03
12:55 am 00:55 Cloudy 63 17 61 16 94 94 SSW 18 30 29.76 1008 10 16 0.15 3.81
1:15 am 01:15 Cloudy 63 17 61 16 94 94 SW 10 17 29.76 1008 7 11 0.02 0.51
1:35 am 01:35 Cloudy with Nearby Thunderstorms 62 16.8 61 15.9 94 94 SSW 18 30 29.76 1008 4 6 0.14 3.56
1:55 am 01:55 Cloudy 63 17 60 15.5 91 91 SSW 14 22 29.76 1008 7 11 0.16 4.06
2:15 am 02:15 Cloudy with Rain 62 16.7 59 15.2 91 91 SSW 12 19 29.76 1008 10 16 0.00 0.00
2:35 am 02:35 Cloudy with Rain 62 16.5 59 15.2 92 92 SSW 9 15 29.75 1007 10 16 0.00 0.00
2:55 am 02:55 Cloudy 61 16.1 59 15.1 94 94 SW 8 13 29.75 1007 10 16 0.00 0.00
3:15 am 03:15 Cloudy 61 16.2 57 14.1 87 87 WNW 7 11 29.75 1007 10 16 0.00 0.00
3:35 am 03:35 Mostly Cloudy 60 15.5 55 13 85 85 W 3 6 29.75 1008 10 16 0.00 0.00
3:55 am 03:55 Partly Cloudy 59 15 55 12.5 85 85 Calm 29.76 1008 10 16 0.00 0.00
4:15 am 04:15 Mostly Cloudy 58 14.6 54 12.1 85 85 Calm 29.76 1008 10 16 0.00 0.00
4:35 am 04:35 Cloudy 58 14.6 54 12.1 85 85 Calm 29.77 1008 10 16 0.00 0.00
4:55 am 04:55 Cloudy 58 14.6 53 11.7 83 83 Calm 29.78 1009 10 16 0.00 0.00
5:15 am 05:15 Cloudy 58 14.4 51 10.5 78 78 Calm 29.79 1009 10 16 0.00 0.00
5:35 am 05:35 Cloudy 57 13.8 49 9.6 76 76 Calm 29.79 1009 10 16 0.00 0.00
5:55 am 05:55 Mostly Cloudy 56 13.2 48 9.1 76 76 Calm 29.80 1009 10 16 0.00 0.00
6:15 am 06:15 Cloudy 56 13.2 49 9.2 77 77 Calm 29.80 1009 10 16 0.00 0.00
6:35 am 06:35 Cloudy 55 13 48 9.1 77 77 Calm 29.81 1009 10 16 0.00 0.00
6:55 am 06:55 Mostly Cloudy 54 12.2 49 9.2 82 82 Calm 29.82 1010 10 16 0.00 0.00
7:15 am 07:15 Sunny 53 11.8 48 9 83 83 Calm 29.83 1010 10 16 0.00 0.00
7:35 am 07:35 Mostly Cloudy 54 12 49 9.4 84 84 Calm 29.84 1011 10 16 0.00 0.00
7:55 am 07:55 Cloudy 55 12.5 49 9.4 82 82 Calm 29.85 1011 10 16 0.00 0.00
8:15 am 08:15 Cloudy 55 12.7 49 9.4 81 81 Calm 29.85 1011 10 16 0.01 0.25
8:35 am 08:35 Cloudy 55 13 50 9.8 81 81 Calm 29.86 1011 10 16 0.01 0.25
8:55 am 08:55 Cloudy 56 13.2 48 9.1 76 76 Calm 29.86 1011 10 16 0.01 0.25
9:15 am 09:15 Cloudy 57 13.8 48 8.8 72 72 WSW 10 17 29.85 1011 10 16 0.00 0.00
9:35 am 09:35 Partly Cloudy 58 14.3 48 9 71 71 WSW 13 20 29.85 1011 10 16 0.00 0.00
9:55 am 09:55 Mostly Cloudy 58 14.6 48 9 69 69 WSW 10 17 29.84 1011 10 16 0.00 0.00
10:15 am 10:15 Cloudy 58 14.3 48 9.1 71 71 WSW 7 11 29.85 1011 10 16 0.00 0.00
10:35 am 10:35 Cloudy 57 14.1 49 9.3 73 73 WSW 8 13 29.85 1011 10 16 0.00 0.00
10:55 am 10:55 Cloudy 57 14.1 48 9 72 72 WSW 15 24 29.85 1011 10 16 0.00 0.00
11:15 am 11:15 Cloudy 58 14.6 47 8.4 67 67 SW 14 22 29.85 1011 10 16 0.00 0.00
11:35 am 11:35 Cloudy 58 14.5 48 8.9 69 69 WSW 16 26 29.86 1011 10 16 0.00 0.00
11:55 am 11:55 Cloudy 58 14.2 48 8.7 70 70 WSW 13 20 29.86 1011 10 16 0.00 0.00
12:15 pm 12:15 Cloudy 58 14.7 48 8.9 68 68 WSW 16 26 29.85 1011 10 16 0.00 0.00
12:35 pm 12:35 Cloudy 59 15 49 9.2 68 68 SW 10 17 29.85 1011 10 16 0.00 0.00
12:55 pm 12:55 Cloudy 58 14.4 48 8.8 69 69 WSW 17 28 29.86 1011 10 16 0.00 0.00
1:15 pm 13:15 Cloudy 59 14.9 47 8.3 65 65 SW 21 33 29.85 1011 10 16 0.00 0.00
1:35 pm 13:35 Cloudy 59 15.2 47 8.2 63 63 WSW 16 26 29.85 1011 10 16 0.00 0.00
1:55 pm 13:55 Cloudy 59 14.9 46 8 64 64 WSW 18 30 29.86 1011 10 16 0.00 0.00
2:15 pm 14:15 Cloudy 58 14.5 47 8.1 66 66 W 17 28 29.87 1011 10 16 0.00 0.00
2:35 pm 14:35 Cloudy 59 14.8 48 8.8 68 68 WSW 17 28 29.87 1012 10 16 0.00 0.00
2:55 pm 14:55 Cloudy 60 15.3 48 9 66 66 W 16 26 29.87 1012 10 16 0.00 0.00
3:15 pm 15:15 Cloudy 58 14.7 48 8.7 68 68 W 18 30 29.88 1012 10 16 0.00 0.00
3:35 pm 15:35 Cloudy 59 15 48 9 68 68 WSW 17 28 29.88 1012 10 16 0.00 0.00
3:55 pm 15:55 Cloudy 58 14.7 48 9.1 69 69 W 14 22 29.89 1012 10 16 0.00 0.00
4:15 pm 16:15 Cloudy 59 14.9 47 8.4 65 65 W 21 33 29.89 1012 10 16 0.00 0.00
4:35 pm 16:35 Cloudy 57 13.9 46 7.7 66 66 W 18 30 29.91 1013 10 16 0.00 0.00
4:55 pm 16:55 Cloudy 56 13.5 45 7.2 66 66 W 16 26 29.91 1013 10 16 0.00 0.00
5:15 pm 17:15 Cloudy 56 13.1 45 7.1 67 67 W 15 24 29.92 1013 10 16 0.00 0.00
5:35 pm 17:35 Cloudy 56 13.2 45 7.3 68 68 WNW 9 15 29.92 1013 10 16 0.00 0.00
5:55 pm 17:55 Cloudy 55 12.9 45 7.2 69 69 W 5 7 29.92 1013 10 16 0.00 0.00
6:15 pm 18:15 Cloudy 55 12.7 46 7.6 71 71 W 10 17 29.93 1014 10 16 0.00 0.00
6:35 pm 18:35 Cloudy 55 13 46 7.7 70 70 W 10 17 29.93 1014 10 16 0.00 0.00
6:55 pm 18:55 Cloudy 56 13.3 46 7.9 70 70 W 13 20 29.94 1014 10 16 0.00 0.00
7:15 pm 19:15 Cloudy 55 13 46 7.5 69 69 W 9 15 29.94 1014 10 16 0.00 0.00
7:35 pm 19:35 Cloudy 55 12.8 45 7.3 69 69 W 15 24 29.95 1014 10 16 0.00 0.00
7:55 pm 19:55 Cloudy 55 12.7 46 7.6 71 71 W 8 13 29.95 1014 10 16 0.00 0.00
8:15 pm 20:15 Cloudy 54 12.4 46 7.5 72 72 W 9 15 29.96 1015 10 16 0.00 0.00
8:35 pm 20:35 Cloudy 54 12.2 45 7.1 71 71 W 6 9 29.96 1015 10 16 0.00 0.00
8:55 pm 20:55 Cloudy 54 12.1 44 6.6 69 69 W 5 7 29.97 1015 10 16 0.00 0.00
9:15 pm 21:15 Cloudy 54 12 44 6.6 70 70 Calm 29.98 1015 10 16 0.00 0.00
9:35 pm 21:35 Cloudy 53 11.8 44 6.7 71 71 WNW 3 6 29.98 1015 10 16 0.00 0.00
9:55 pm 21:55 Cloudy 53 11.6 44 6.7 72 72 Calm 30.00 1016 10 16 0.00 0.00
10:15 pm 22:15 Cloudy 53 11.5 43 6.3 71 71 W 5 7 30.01 1016 10 16 0.00 0.00
10:35 pm 22:35 Cloudy 52 11.2 43 6.2 72 72 W 7 11 30.01 1016 10 16 0.00 0.00
10:55 pm 22:55 Cloudy 52 11 44 6.5 74 74 Calm 30.01 1016 10 16 0.00 0.00
11:15 pm 23:15 Cloudy 52 10.9 43 6.2 73 73 Calm 30.01 1016 10 16 0.00 0.00
11:35 pm 23:35 Cloudy 52 11 43 6 72 72 Calm 30.01 1016 10 16 0.00 0.00
11:55 pm 23:55 Cloudy 52 10.9 43 6.1 72 72 Calm 30.01 1016 10 16 0.00 0.00

Powered by AerisWeather